User: anonymous   Login
Location: Prairie State College
(41.5244°N, 87.6382°W)
Time: 17:24:28
(UTC-06:00)
Language:

Cosmos 1943 - Orbit

View from above orbital plane
View from above orbital plane
View from above satellite
View from above satellite

Ground track
Ground track

The orbit data is extracted from the following two-line orbital elements,

1 19119U 88039A   16041.62230157 -.00000174  00000-0 -65436-4 0  9999
2 19119  71.0022  56.1387 0009065  86.5132  48.3644 14.15049517432410
Epoch (UTC): 10 February 2016 14:56:06
Eccentricity: 0.0009065
inclination: 71.0022°
perigee height: 835 km
apogee height: 848 km
right ascension of ascending node: 56.1387°
argument of perigee: 86.5132°
revolutions per day: 14.15049517
mean anomaly at epoch: 48.3644°
orbit number at epoch: 43241

The dashed part of the orbit path shows where the satellite is in the earth's shadow,  

DLR